STARLINK-4272 (52866 NORAD) Tracking and Keplerian Element Data

This shows tracking and keplerian element data for the satellite.

Feedback or suggestion? Click here.




ElementValue
Catalog52866
NameSTARLINK-4272
Epoch Orbit1296
Epoch Day248.25001157
Epoch Year2022
RAAN16.7503
Inclination53.2173
Eccentricity0.0001397
Argument of Perigee52.1345
Mean Anonmoly294.3566
Mean Motion15.1407869
Decay Rate-0.0107128
L11 52866U 22062AN 22248.25001157 -.01071280 00000+0 -62826-1 0 9993
L22 52866 53.2173 16.7503 0001397 52.1345 294.3566 15.14078690 12966

Live tracking and technical data element details for STARLINK-4272 (NORAD 52866). STARLINK-4272 can be tracked NOW for your location showing map with azimuth and elevation plus other details from your city location.

Track the satellite on the map from your city or location and see movement details for azimuth, elevation, latitude, longitude, range, height, and movement on the map or in text.







IsCatalogInMostPopularTable: catalog: 52866, numindb: 5
Update: records affected: 1



GetName: 52866 STARLINK-4272

Hit Count: updated at: Sun, 25 Sep 2022 09:01:03 GMT